Location: Seven Kings
(51.5667°N, 0.1000°E)
Time: 11:57:14
(UTC+00:00)

Cosmos 1076 Rocket - Pass Details

Date: 29 October 2020
Orbit: 589 x 613 km, 82.5° (Epoch: 24 November)

Event Time Altitude Azimuth Distance (km) Brightness Sun altitude
Rises 18:25:32 0° 350° (N) 2,836 7.1 -17.3°
Reaches altitude 10° 18:27:45 10° 351° (N) 1,931 6.2 -17.6°
Maximum altitude 18:32:01 80° 79° (E) 607 3.3 -18.3°
Drops below altitude 10° 18:36:16 10° 167° (SSE) 1,921 5.9 -19.0°
Sets 18:38:28 0° 168° (SSE) 2,821 6.8 -19.3°
